Hourly Weather Roundup
Issued by NWS Central Illinois

Home | Current Version | Previous Version | Text Only | Print | Product List | Glossary Off
Versions: 1 2 3 4 5 6 7 8 9 10 11 12 13 14 15 16 17 18 19 20 21 22 23 24 25 26 27 28 29 30 31 32 33 34 35 36 37 38 39 40 41 42 43 44 45 46 47 48 49 50

000
NZUS43 KILX 052310
HWRILX

AREA WEATHER ROUNDUP
NATIONAL WEATHER SERVICE, LINCOLN IL
600 PM CDT SUN JUL 05 2015


CITY           SKY/WX    TMP DP  RH WIND       PRES   REMARKS
BLOOMINGTON    MOSUNNY   81  66  60 S13       30.05F HX  83
CHAMPAIGN      MOSUNNY   81  67  62 SW3       30.05F HX  83
DANVILLE       SUNNY     79  67  67 SW3       30.02F HAZE    HX  81
DECATUR        SUNNY     82  65  56 S8        30.04F HX  84
EFFINGHAM      SUNNY     83  62  48 S5        30.04F HX  83
FLORA          SUNNY     83  65  56 W3        30.02F HX  84
GALESBURG      MOSUNNY   80  66  62 SE5       30.01F HX  82
JACKSONVILLE   PTSUNNY   84  69  61 SE7       30.01F HX  87
LACON          SUNNY     81  64  55 S6        30.01F HX  82
LAWRENCEVILLE  SUNNY     82  69  64 S6        30.03F HX  85
LITCHFIELD     SUNNY     81  65  57 S8        30.02F HX  82
$$


CITY           SKY/WX    TMP DP  RH WIND       PRES   REMARKS
LINCOLN        SUNNY     83  64  52 S5        30.02F HX  84
MACOMB         MOSUNNY   79  69  70 SE5       30.02F HX  82
MATTOON        MOSUNNY   81  67  62 SE5       30.03F HX  83
MT CARMEL AP   SUNNY     84  66  54 SE5       30.02F HX  86
OLNEY-NOBLE AP SUNNY     82  68  61 CALM      30.03F HX  85
PARIS          SUNNY     82  65  57 CALM      30.05F HX  83
PEORIA         SUNNY     83  63  50 S8        30.02F HX  84
PONTIAC        SUNNY     81  67  62 S5        30.04F HX  83
RANTOUL        SUNNY     82  67  60 S6        30.04F HX  84
ROBINSON       PTSUNNY   83  67  59 CALM      30.04F HX  86
SPRINGFIELD    MOSUNNY   84  68  58 S7        30.02S HX  87
TAYLORVILLE    SUNNY     79  68  69 SE7       30.03S HX  81
$$

...REGIONAL REPORTS...


CITY           SKY/WX    TMP DP  RH WIND       PRES   REMARKS
CHICAGO O`HARE MOSUNNY   81  60  48 SW8       30.02F HX  82
KANKAKEE       SUNNY     82  64  56 S6        30.04F HX  83
MOLINE         PTSUNNY   79  66  64 SE7       29.99F HX  81
MOUNT STERLING NOT AVBL
MOUNT VERNON   SUNNY     84  64  51 S5        30.02F HX  86
PITTSFIELD     MOSUNNY   82  67  60 SE6       30.02S HX  85
QUINCY         MOSUNNY   84  68  58 SE9       29.99S HX  87
ROCKFORD       MOSUNNY   81  63  54 S12       30.03F HX  82
$$


CITY           SKY/WX    TMP DP  RH WIND       PRES   REMARKS
BURLINGTON     PTSUNNY   83  72  69 S8        29.98F HX  88
CEDAR RAPIDS   PTSUNNY   81  69  67 S9        29.95F HX  84
DES MOINES     PTSUNNY   86  69  56 SE17      29.90F HX  90
KIRKSVILLE     SUNNY     84  67  56 S13       29.97F HX  86
OTTUMWA        MOSUNNY   83  69  62 S13       29.93F HX  86
ST LOUIS       PTSUNNY   86  65  49 SE9       30.00F HX  88
$$


CITY           SKY/WX    TMP DP  RH WIND       PRES   REMARKS
TERRE HAUTE    MOSUNNY   82  68  62 SE7       30.04S HX  85
EVANSVILLE     MOSUNNY   83  68  60 E6        30.02F HAZE    HX  86
INDIANAPOLIS   PTSUNNY   77  61  57 SE9       30.05F
LAFAYETTE      SUNNY     80  60  50 S3        30.04F HX  81
MADISON        PTSUNNY   82  62  50 S15       29.99F HX  83
MILWAUKEE      MOSUNNY   77  59  53 S14       30.02F
$$





USA.gov is the U.S. government's official web portal to all federal, state and local government web resources and services.